Zurück zum Katalog

MOLNIYA 3-20

AktivKommunikationHEO
NORAD 13875·PAYLOAD·🇷🇺 Russia

Gestartet Mar 11, 1983 von Plesetsk Cosmodrome

Loading…

Nächste Überflüge (nächste 24 Stunden)

TLE

AktuellSource: Space-Track

Epoche: Sep 9, 2026, 19:17 UTC

1 13875U 83015A   26252.80392556  .00001433  00000-0  00000+0 0  9996
2 13875  62.0130 134.9552 7133316 272.3545  15.1163  2.00642052254716

Verfolge MOLNIYA 3-20 in Echtzeit mit AllMySat

Download on the App Store